Regional Weather Roundup
Issued by NWS Albany, NY

Home | Current Version | Previous Version | Text Only | Print | Product List | Glossary On
Versions: 1 2 3 4 5 6 7 8 9 10 11 12 13 14 15 16 17 18 19 20 21 22 23 24 25 26 27 28 29 30 31 32 33 34 35 36 37 38 39 40 41 42 43 44 45 46 47 48 49 50
000
ASUS41 KALY 231210
RWRALY

NEW YORK STATE HOURLY WEATHER ROUNDUP
NATIONAL WEATHER SERVICE ALBANY NY
800 AM EDT MON MAY 23 2016

NOTE: "FAIR" INDICATES FEW OR NO CLOUDS BELOW 12,000 FEET WITH NO
SIGNIFICANT WEATHER AND/OR NO OBSTRUCTIONS TO VISIBILITY.

NYZ032-033-038>043-046>054-057>066-NYZ062>081-082-084-231300-
EAST


CITY           SKY/WX    TMP DP  RH WIND       PRES   REMARKS
ALBANY         MOSUNNY   59  53  80 NE3       29.96S
GLENS FALLS    SUNNY     57  51  80 NE5       29.97S
POUGHKEEPSIE   SUNNY     58  51  78 CALM      29.94R
NEWBURGH       SUNNY     59  54  82 CALM      29.95R
MONTGOMERY     SUNNY     58  52  80 CALM      29.94R
WHITE PLAINS   SUNNY     63  53  70 N5        29.93R
ISLIP          MOSUNNY   58  53  84 SE6       29.93R
NEW YORK CITY  MOSUNNY   61  58  90 E3        29.93R
CENTRAL PARK   SUNNY     61  52  72 CALM      29.96R
$$

NYZ005>009-017-018-044>046-055-056-231300-
CENTRAL


CITY           SKY/WX    TMP DP  RH WIND       PRES   REMARKS
FULTON         SUNNY     58  51  78 CALM      30.00R
SYRACUSE       SUNNY     57  52  83 CALM      30.00R
ROME           FOG       52  52 100 CALM      30.01S VSB 1/4
ELMIRA         FOG       50  49  96 SW6       30.00R VSB 1/4
BINGHAMTON     SUNNY     56  49  77 NE7       29.99R
MONTICELLO     SUNNY     57  50  77 CALM      29.97S
$$

NYZ026>034-041>043-087-231300-
NORTH


CITY           SKY/WX    TMP DP  RH WIND       PRES   REMARKS
WATERTOWN      SUNNY     57  51  80 CALM      29.99S
FORT DRUM      NOT AVBL
MASSENA        SUNNY     58  48  69 CALM      30.00S
SARANAC LAKE   SUNNY     53  47  79 S3        30.00S
PLATTSBURGH    SUNNY     58  52  80 CALM      29.98S
$$

NYZ001>004-010>016-019>021-085-231300-
WEST


CITY           SKY/WX    TMP DP  RH WIND       PRES   REMARKS
NIAGARA FALLS  SUNNY     57  43  59 CALM      30.03R
BUFFALO        SUNNY     55  48  77 SW3       30.03R
DUNKIRK        SUNNY     56  49  77 CALM      30.04R
JAMESTOWN      SUNNY     55  41  58 N6        30.04R
WELLSVILLE     SUNNY     56  49  77 CALM      30.04R
ROCHESTER      MOSUNNY   58  49  72 CALM      30.02R
PENN YAN       SUNNY     56  51  84 W3        30.02R
$$

             KEY
       WCI = WIND CHILL INDEX
       VSB = VISIBILITY
       HX  = HEAT INDEX
$$



USA.gov is the U.S. government's official web portal to all federal, state and local government web resources and services.